Retour au catalogue

STARLINK-30507

ActifCommunicationsVLEO
NORAD 57982·PAYLOAD·🇺🇸 United States

Lancé Sep 30, 2023 depuis Cape Canaveral Space Force Station

Loading…

Prochains Passages (prochaines 24 heures)

TLE

FraisSource: CelesTrak SupGP

Époque: Sep 15, 2026, 01:59 UTC

1 57982C 23151U   26258.08312500 -.00039459  00000+0 -14294-2 0  2586
2 57982  43.0027   4.3753 0001731 257.3966 333.7187 15.27592507    17

Suivez STARLINK-30507 en temps réel avec AllMySat

Download on the App Store